Time,TemperatureF,DewpointF,PressureIn,WindDirection,WindDirectionDegrees,WindSpeedMPH,WindSpeedGustMPH,Humidity,HourlyPrecipIn,Conditions,Clouds,dailyrainin,SoftwareType,DateUTC
2013-09-20 00:00:00,50.5,49.1,30.10,WNW,298,0.0,8.0,95,0.00,,,0.00,Wunderground v.1.15,2013-09-20 04:00:00,
2013-09-20 00:05:00,50.6,49.2,30.10,WNW,298,0.0,8.0,95,0.00,,,0.00,Wunderground v.1.15,2013-09-20 04:05:00,
2013-09-20 00:10:00,50.5,49.1,30.11,WNW,298,0.0,8.0,95,0.00,,,0.00,Wunderground v.1.15,2013-09-20 04:10:00,
2013-09-20 00:15:00,50.3,48.9,30.11,WNW,298,0.0,8.0,95,0.00,,,0.00,Wunderground v.1.15,2013-09-20 04:15:00,
2013-09-20 00:20:00,50.2,48.8,30.11,WNW,298,0.0,8.0,95,0.00,,,0.00,Wunderground v.1.15,2013-09-20 04:20:00,
2013-09-20 00:25:00,50.1,48.7,30.11,WNW,298,0.0,8.0,95,0.00,,,0.00,Wunderground v.1.15,2013-09-20 04:25:00,
2013-09-20 00:30:00,50.1,48.7,30.11,WNW,298,0.0,8.0,95,0.00,,,0.00,Wunderground v.1.15,2013-09-20 04:30:00,
2013-09-20 00:35:00,50.1,48.7,30.11,WNW,298,0.0,8.0,95,0.00,,,0.00,Wunderground v.1.15,2013-09-20 04:35:00,
2013-09-20 00:40:00,49.9,48.5,30.11,WNW,298,0.0,8.0,95,0.00,,,0.00,Wunderground v.1.15,2013-09-20 04:40:00,
2013-09-20 00:45:00,49.8,48.4,30.11,WNW,298,0.0,8.0,95,0.00,,,0.00,Wunderground v.1.15,2013-09-20 04:45:00,
2013-09-20 00:50:00,49.7,48.3,30.11,WNW,298,0.0,8.0,95,0.00,,,0.00,Wunderground v.1.15,2013-09-20 04:50:00,
2013-09-20 00:55:00,49.5,48.1,30.10,WNW,298,0.0,8.0,95,0.00,,,0.00,Wunderground v.1.15,2013-09-20 04:55:00,
2013-09-20 01:00:00,49.6,48.2,30.11,WNW,298,0.0,8.0,95,0.00,,,0.00,Wunderground v.1.15,2013-09-20 05:00:00,
2013-09-20 01:05:00,49.5,48.1,30.11,WNW,298,0.0,8.0,95,0.00,,,0.00,Wunderground v.1.15,2013-09-20 05:05:00,
2013-09-20 01:10:00,49.5,48.1,30.11,WNW,298,0.0,8.0,95,0.00,,,0.00,Wunderground v.1.15,2013-09-20 05:10:00,
2013-09-20 01:15:00,49.4,48.0,30.11,WNW,298,0.0,8.0,95,0.00,,,0.00,Wunderground v.1.15,2013-09-20 05:15:00,
2013-09-20 01:20:00,49.3,47.9,30.11,WNW,298,0.0,8.0,95,0.00,,,0.00,Wunderground v.1.15,2013-09-20 05:20:00,
2013-09-20 01:25:00,49.3,47.9,30.11,WNW,298,0.0,8.0,95,0.00,,,0.00,Wunderground v.1.15,2013-09-20 05:25:00,
2013-09-20 01:30:00,49.3,47.9,30.11,WNW,298,0.0,8.0,95,0.00,,,0.00,Wunderground v.1.15,2013-09-20 05:30:00,
2013-09-20 01:35:00,49.2,47.8,30.11,WNW,298,0.0,8.0,95,0.00,,,0.00,Wunderground v.1.15,2013-09-20 05:35:00,
2013-09-20 01:40:00,49.2,48.1,30.11,WNW,298,0.0,8.0,96,0.00,,,0.00,Wunderground v.1.15,2013-09-20 05:40:00,
2013-09-20 01:45:00,49.2,48.1,30.11,WNW,298,0.0,8.0,96,0.00,,,0.00,Wunderground v.1.15,2013-09-20 05:45:00,
2013-09-20 01:50:00,49.1,48.0,30.11,WNW,298,0.0,8.0,96,0.00,,,0.00,Wunderground v.1.15,2013-09-20 05:50:00,
2013-09-20 01:55:00,49.1,48.0,30.11,WNW,298,0.0,8.0,96,0.00,,,0.00,Wunderground v.1.15,2013-09-20 05:55:00,
2013-09-20 02:00:00,49.1,48.0,30.11,WNW,298,0.0,8.0,96,0.00,,,0.00,Wunderground v.1.15,2013-09-20 06:00:00,
2013-09-20 02:05:00,49.0,47.9,30.11,WNW,298,0.0,8.0,96,0.00,,,0.00,Wunderground v.1.15,2013-09-20 06:05:00,
2013-09-20 02:10:00,48.8,47.7,30.11,WNW,298,0.0,8.0,96,0.00,,,0.00,Wunderground v.1.15,2013-09-20 06:10:00,
2013-09-20 02:15:00,48.7,47.6,30.11,WNW,298,0.0,8.0,96,0.00,,,0.00,Wunderground v.1.15,2013-09-20 06:15:00,
2013-09-20 02:20:00,48.7,47.6,30.11,WNW,298,0.0,8.0,96,0.00,,,0.00,Wunderground v.1.15,2013-09-20 06:20:00,
2013-09-20 02:25:00,48.7,47.6,30.11,WNW,298,0.0,8.0,96,0.00,,,0.00,Wunderground v.1.15,2013-09-20 06:25:00,
2013-09-20 02:30:00,48.8,47.7,30.11,WNW,298,0.0,8.0,96,0.00,,,0.00,Wunderground v.1.15,2013-09-20 06:30:00,
2013-09-20 02:35:00,48.7,47.6,30.10,WNW,298,0.0,8.0,96,0.00,,,0.00,Wunderground v.1.15,2013-09-20 06:35:00,
2013-09-20 02:40:00,48.6,47.5,30.10,WNW,298,0.0,8.0,96,0.00,,,0.00,Wunderground v.1.15,2013-09-20 06:40:00,
2013-09-20 02:45:00,48.5,47.4,30.10,WNW,298,0.0,8.0,96,0.00,,,0.00,Wunderground v.1.15,2013-09-20 06:45:00,
2013-09-20 02:50:00,48.4,47.3,30.10,WNW,298,0.0,8.0,96,0.00,,,0.00,Wunderground v.1.15,2013-09-20 06:50:00,
2013-09-20 02:55:00,48.3,47.2,30.10,WNW,298,0.0,8.0,96,0.00,,,0.00,Wunderground v.1.15,2013-09-20 06:55:00,
2013-09-20 03:00:00,48.3,47.2,30.10,WNW,298,0.0,8.0,96,0.00,,,0.00,Wunderground v.1.15,2013-09-20 07:00:00,
2013-09-20 03:05:00,48.3,47.2,30.10,WNW,298,0.0,8.0,96,0.00,,,0.00,Wunderground v.1.15,2013-09-20 07:05:00,
2013-09-20 03:10:00,48.4,47.3,30.10,WNW,298,0.0,8.0,96,0.00,,,0.00,Wunderground v.1.15,2013-09-20 07:10:00,
2013-09-20 03:15:00,48.6,47.5,30.10,WNW,297,0.0,8.0,96,0.00,,,0.00,Wunderground v.1.15,2013-09-20 07:15:00,
2013-09-20 03:20:00,48.7,47.6,30.10,WNW,298,0.0,8.0,96,0.00,,,0.00,Wunderground v.1.15,2013-09-20 07:20:00,
2013-09-20 03:25:00,48.8,47.7,30.10,WNW,298,0.0,8.0,96,0.00,,,0.00,Wunderground v.1.15,2013-09-20 07:25:00,
2013-09-20 03:30:00,49.0,47.9,30.10,WNW,298,0.0,8.0,96,0.00,,,0.00,Wunderground v.1.15,2013-09-20 07:30:00,
2013-09-20 03:35:00,48.9,47.8,30.10,WNW,298,0.0,8.0,96,0.00,,,0.00,Wunderground v.1.15,2013-09-20 07:35:00,
2013-09-20 03:40:00,48.9,47.8,30.11,WNW,298,0.0,8.0,96,0.00,,,0.00,Wunderground v.1.15,2013-09-20 07:40:00,
2013-09-20 03:45:00,48.9,47.8,30.11,WNW,299,0.0,8.0,96,0.00,,,0.00,Wunderground v.1.15,2013-09-20 07:45:00,
2013-09-20 03:50:00,48.8,47.7,30.11,WNW,298,0.0,8.0,96,0.00,,,0.00,Wunderground v.1.15,2013-09-20 07:50:00,
2013-09-20 03:55:00,48.7,47.6,30.11,WNW,298,0.0,8.0,96,0.00,,,0.00,Wunderground v.1.15,2013-09-20 07:55:00,
2013-09-20 04:00:00,48.5,47.4,30.11,WNW,298,0.0,8.0,96,0.00,,,0.00,Wunderground v.1.15,2013-09-20 08:00:00,
2013-09-20 04:05:00,48.3,47.2,30.10,WNW,298,0.0,8.0,96,0.00,,,0.00,Wunderground v.1.15,2013-09-20 08:05:00,
2013-09-20 04:10:00,48.3,47.2,30.10,WNW,298,0.0,8.0,96,0.00,,,0.00,Wunderground v.1.15,2013-09-20 08:10:00,
2013-09-20 04:15:00,48.3,47.2,30.10,WNW,298,0.0,8.0,96,0.00,,,0.00,Wunderground v.1.15,2013-09-20 08:15:00,
2013-09-20 04:20:00,48.2,47.1,30.10,WNW,298,0.0,8.0,96,0.00,,,0.00,Wunderground v.1.15,2013-09-20 08:20:00,
2013-09-20 04:25:00,48.0,46.9,30.10,WNW,298,0.0,8.0,96,0.00,,,0.00,Wunderground v.1.15,2013-09-20 08:25:00,
2013-09-20 04:30:00,48.0,46.9,30.11,WNW,298,0.0,8.0,96,0.00,,,0.00,Wunderground v.1.15,2013-09-20 08:30:00,
2013-09-20 04:35:00,48.0,46.9,30.11,WNW,298,0.0,8.0,96,0.00,,,0.00,Wunderground v.1.15,2013-09-20 08:35:00,
2013-09-20 04:40:00,48.0,46.9,30.11,WNW,298,0.0,8.0,96,0.00,,,0.00,Wunderground v.1.15,2013-09-20 08:40:00,
2013-09-20 04:45:00,48.1,47.0,30.11,WNW,298,0.0,8.0,96,0.00,,,0.00,Wunderground v.1.15,2013-09-20 08:45:00,
2013-09-20 04:50:00,48.0,46.9,30.11,WNW,298,0.0,8.0,96,0.00,,,0.00,Wunderground v.1.15,2013-09-20 08:50:00,
2013-09-20 04:55:00,47.9,46.8,30.10,WNW,297,0.0,8.0,96,0.00,,,0.00,Wunderground v.1.15,2013-09-20 08:55:00,
2013-09-20 05:00:00,47.7,46.6,30.10,WNW,298,0.0,8.0,96,0.00,,,0.00,Wunderground v.1.15,2013-09-20 09:00:00,
2013-09-20 05:05:00,47.6,46.5,30.10,WNW,298,0.0,8.0,96,0.00,,,0.00,Wunderground v.1.15,2013-09-20 09:05:00,
2013-09-20 05:10:00,47.7,46.6,30.10,WNW,298,0.0,8.0,96,0.00,,,0.00,Wunderground v.1.15,2013-09-20 09:10:00,
2013-09-20 05:15:00,47.8,46.7,30.10,WNW,298,0.0,8.0,96,0.00,,,0.00,Wunderground v.1.15,2013-09-20 09:15:00,
2013-09-20 05:20:00,47.8,46.7,30.10,WNW,299,0.0,8.0,96,0.00,,,0.00,Wunderground v.1.15,2013-09-20 09:20:00,
2013-09-20 05:25:00,47.7,46.6,30.10,WNW,298,0.0,8.0,96,0.00,,,0.00,Wunderground v.1.15,2013-09-20 09:25:00,
2013-09-20 05:30:00,47.6,46.5,30.10,WNW,298,0.0,8.0,96,0.00,,,0.00,Wunderground v.1.15,2013-09-20 09:30:00,
2013-09-20 05:35:00,47.8,46.7,30.10,WNW,298,0.0,8.0,96,0.00,,,0.00,Wunderground v.1.15,2013-09-20 09:35:00,
2013-09-20 05:45:00,47.9,46.8,30.09,WNW,298,0.0,8.0,96,0.00,,,0.00,Wunderground v.1.15,2013-09-20 09:45:00,
2013-09-20 05:50:00,48.0,47.2,30.09,WNW,298,0.0,8.0,97,0.00,,,0.00,Wunderground v.1.15,2013-09-20 09:50:00,
2013-09-20 05:55:00,47.9,46.8,30.09,WNW,298,0.0,8.0,96,0.00,,,0.00,Wunderground v.1.15,2013-09-20 09:55:00,
2013-09-20 06:00:00,48.0,47.2,30.09,WNW,298,0.0,8.0,97,0.00,,,0.00,Wunderground v.1.15,2013-09-20 10:00:00,
2013-09-20 06:05:00,48.0,47.2,30.09,WNW,298,0.0,8.0,97,0.00,,,0.00,Wunderground v.1.15,2013-09-20 10:05:00,
2013-09-20 06:10:00,47.9,46.8,30.10,WNW,298,0.0,8.0,96,0.00,,,0.00,Wunderground v.1.15,2013-09-20 10:10:00,
2013-09-20 06:15:00,47.8,46.7,30.10,WNW,298,0.0,8.0,96,0.00,,,0.00,Wunderground v.1.15,2013-09-20 10:15:00,
2013-09-20 06:20:00,47.9,47.1,30.09,WNW,298,0.0,8.0,97,0.00,,,0.00,Wunderground v.1.15,2013-09-20 10:20:00,
2013-09-20 06:25:00,47.9,47.1,30.10,WNW,298,0.0,8.0,97,0.00,,,0.00,Wunderground v.1.15,2013-09-20 10:25:00,
2013-09-20 06:30:00,47.7,46.6,30.10,WNW,298,0.0,8.0,96,0.00,,,0.00,Wunderground v.1.15,2013-09-20 10:30:00,
2013-09-20 06:35:00,47.6,46.5,30.10,WNW,298,0.0,8.0,96,0.00,,,0.00,Wunderground v.1.15,2013-09-20 10:35:00,
2013-09-20 06:40:00,47.5,46.4,30.10,WNW,298,0.0,8.0,96,0.00,,,0.00,Wunderground v.1.15,2013-09-20 10:40:00,
2013-09-20 06:45:00,47.5,46.4,30.09,WNW,298,0.0,8.0,96,0.00,,,0.00,Wunderground v.1.15,2013-09-20 10:45:00,
2013-09-20 06:50:00,47.7,46.9,30.09,WNW,298,0.0,8.0,97,0.00,,,0.01,Wunderground v.1.15,2013-09-20 10:50:00,
2013-09-20 06:55:00,47.8,47.0,30.09,WNW,298,0.0,8.0,97,0.00,,,0.01,Wunderground v.1.15,2013-09-20 10:55:00,
2013-09-20 07:05:00,47.7,46.9,30.10,WNW,298,0.0,8.0,97,0.00,,,0.01,Wunderground v.1.15,2013-09-20 11:05:00,
2013-09-20 07:10:00,47.9,47.1,30.10,WNW,298,0.0,8.0,97,0.00,,,0.01,Wunderground v.1.15,2013-09-20 11:10:00,
2013-09-20 07:15:00,48.1,47.3,30.10,WNW,298,0.0,8.0,97,0.00,,,0.01,Wunderground v.1.15,2013-09-20 11:15:00,
2013-09-20 07:20:00,48.1,47.3,30.10,WNW,298,0.0,8.0,97,0.00,,,0.01,Wunderground v.1.15,2013-09-20 11:20:00,
2013-09-20 07:25:00,48.2,47.4,30.10,WNW,298,0.0,8.0,97,0.00,,,0.01,Wunderground v.1.15,2013-09-20 11:25:00,
2013-09-20 07:30:00,48.2,47.4,30.10,WNW,298,0.0,8.0,97,0.00,,,0.01,Wunderground v.1.15,2013-09-20 11:30:00,
2013-09-20 07:35:00,48.3,47.5,30.10,WNW,298,0.0,8.0,97,0.00,,,0.01,Wunderground v.1.15,2013-09-20 11:35:00,
2013-09-20 07:40:00,48.5,47.7,30.10,WNW,298,0.0,8.0,97,0.00,,,0.01,Wunderground v.1.15,2013-09-20 11:40:00,
2013-09-20 07:50:00,49.1,48.3,30.10,WNW,297,0.0,8.0,97,0.00,,,0.01,Wunderground v.1.15,2013-09-20 11:50:00,
2013-09-20 07:55:00,49.9,49.1,30.10,WNW,297,0.0,8.0,97,0.00,,,0.01,Wunderground v.1.15,2013-09-20 11:55:00,
2013-09-20 08:00:00,50.8,50.0,30.10,WSW,239,0.0,8.0,97,0.00,,,0.01,Wunderground v.1.15,2013-09-20 12:00:00,
2013-09-20 08:05:00,51.7,50.9,30.10,SW,226,0.0,8.0,97,0.00,,,0.01,Wunderground v.1.15,2013-09-20 12:05:00,
2013-09-20 08:10:00,52.5,51.7,30.10,SSW,211,0.0,8.0,97,0.00,,,0.01,Wunderground v.1.15,2013-09-20 12:10:00,
2013-09-20 08:15:00,53.0,52.2,30.10,SW,224,1.0,8.0,97,0.00,,,0.01,Wunderground v.1.15,2013-09-20 12:15:00,
2013-09-20 08:20:00,53.4,52.6,30.10,South,181,1.0,1.0,97,0.00,,,0.01,Wunderground v.1.15,2013-09-20 12:20:00,
2013-09-20 08:25:00,53.8,53.0,30.10,South,179,0.0,8.0,97,0.00,,,0.01,Wunderground v.1.15,2013-09-20 12:25:00,
2013-09-20 08:30:00,54.1,53.3,30.10,SE,131,0.0,8.0,97,0.00,,,0.01,Wunderground v.1.15,2013-09-20 12:30:00,
2013-09-20 08:35:00,54.4,53.6,30.10,SSE,155,0.0,8.0,97,0.00,,,0.01,Wunderground v.1.15,2013-09-20 12:35:00,
2013-09-20 08:40:00,54.9,54.1,30.10,SE,145,0.0,8.0,97,0.00,,,0.01,Wunderground v.1.15,2013-09-20 12:40:00,
2013-09-20 08:45:00,55.6,54.8,30.10,SSE,148,0.0,8.0,97,0.00,,,0.01,Wunderground v.1.15,2013-09-20 12:45:00,
2013-09-20 08:55:00,56.3,55.5,30.09,South,187,1.0,8.0,97,0.00,,,0.01,Wunderground v.1.15,2013-09-20 12:55:00,
2013-09-20 09:00:00,56.8,56.0,30.09,SSE,159,1.0,1.0,97,0.00,,,0.01,Wunderground v.1.15,2013-09-20 13:00:00,
2013-09-20 09:05:00,57.3,56.5,30.09,South,184,0.0,8.0,97,0.00,,,0.01,Wunderground v.1.15,2013-09-20 13:05:00,
2013-09-20 09:10:00,57.7,56.3,30.09,South,183,0.0,8.0,95,0.00,,,0.01,Wunderground v.1.15,2013-09-20 13:10:00,
2013-09-20 09:15:00,58.3,56.9,30.09,South,183,0.0,8.0,95,0.00,,,0.01,Wunderground v.1.15,2013-09-20 13:15:00,
2013-09-20 09:25:00,59.5,57.8,30.09,South,184,0.0,8.0,94,0.00,,,0.01,Wunderground v.1.15,2013-09-20 13:25:00,
2013-09-20 09:30:00,60.1,58.4,30.08,South,183,0.0,8.0,94,0.00,,,0.01,Wunderground v.1.15,2013-09-20 13:30:00,
2013-09-20 09:35:00,60.8,58.8,30.08,SW,222,0.0,8.0,93,0.00,,,0.01,Wunderground v.1.15,2013-09-20 13:35:00,
2013-09-20 09:40:00,61.5,59.2,30.08,WSW,237,0.0,8.0,92,0.00,,,0.01,Wunderground v.1.15,2013-09-20 13:40:00,
2013-09-20 09:45:00,62.2,59.5,30.08,SW,236,0.0,8.0,91,0.00,,,0.01,Wunderground v.1.15,2013-09-20 13:45:00,
2013-09-20 09:50:00,62.9,59.9,30.08,SW,226,0.0,8.0,90,0.00,,,0.01,Wunderground v.1.15,2013-09-20 13:50:00,
2013-09-20 09:55:00,63.7,60.4,30.08,SW,226,0.0,8.0,89,0.00,,,0.01,Wunderground v.1.15,2013-09-20 13:55:00,
2013-09-20 10:00:00,64.4,60.8,30.08,WSW,249,0.0,8.0,88,0.00,,,0.01,Wunderground v.1.15,2013-09-20 14:00:00,
2013-09-20 10:05:00,65.0,60.7,30.08,WSW,255,0.0,8.0,86,0.00,,,0.01,Wunderground v.1.15,2013-09-20 14:05:00,
2013-09-20 10:10:00,65.7,60.7,30.08,SW,218,1.0,8.0,84,0.00,,,0.01,Wunderground v.1.15,2013-09-20 14:10:00,
2013-09-20 10:15:00,66.3,61.3,30.07,WNW,293,1.0,8.0,84,0.00,,,0.01,Wunderground v.1.15,2013-09-20 14:15:00,
2013-09-20 10:20:00,66.7,61.4,30.07,WNW,282,1.0,1.0,83,0.00,,,0.01,Wunderground v.1.15,2013-09-20 14:20:00,
2013-09-20 10:25:00,67.5,61.8,30.07,South,169,1.0,8.0,82,0.00,,,0.01,Wunderground v.1.15,2013-09-20 14:25:00,
2013-09-20 10:30:00,68.3,61.9,30.07,WSW,246,1.0,8.0,80,0.00,,,0.01,Wunderground v.1.15,2013-09-20 14:30:00,
2013-09-20 10:35:00,68.9,62.1,30.07,NW,307,1.0,8.0,79,0.00,,,0.01,Wunderground v.1.15,2013-09-20 14:35:00,
2013-09-20 10:40:00,69.2,61.7,30.07,SW,231,2.0,2.0,77,0.00,,,0.01,Wunderground v.1.15,2013-09-20 14:40:00,
2013-09-20 10:45:00,69.7,62.2,30.07,SSW,195,1.0,5.0,77,0.00,,,0.01,Wunderground v.1.15,2013-09-20 14:45:00,
2013-09-20 10:50:00,70.1,61.8,30.07,WNW,298,1.0,1.0,75,0.00,,,0.01,Wunderground v.1.15,2013-09-20 14:50:00,
2013-09-20 10:55:00,70.7,61.6,30.07,South,191,2.0,4.0,73,0.00,,,0.01,Wunderground v.1.15,2013-09-20 14:55:00,
2013-09-20 11:00:00,70.8,61.7,30.07,SSW,208,3.0,8.0,73,0.00,,,0.01,Wunderground v.1.15,2013-09-20 15:00:00,
2013-09-20 11:05:00,71.1,62.0,30.06,SW,233,3.0,8.0,73,0.00,,,0.01,Wunderground v.1.15,2013-09-20 15:05:00,
2013-09-20 11:10:00,71.7,62.6,30.06,South,179,2.0,8.0,73,0.00,,,0.01,Wunderground v.1.15,2013-09-20 15:10:00,
2013-09-20 11:15:00,72.1,61.4,30.06,SSW,210,2.0,8.0,69,0.00,,,0.01,Wunderground v.1.15,2013-09-20 15:15:00,
2013-09-20 11:20:00,72.2,61.5,30.06,WNW,290,3.0,8.0,69,0.00,,,0.01,Wunderground v.1.15,2013-09-20 15:20:00,
2013-09-20 11:25:00,72.4,61.7,30.06,SW,225,3.0,8.0,69,0.00,,,0.01,Wunderground v.1.15,2013-09-20 15:25:00,
2013-09-20 11:30:00,72.8,61.6,30.05,WNW,293,2.0,8.0,68,0.00,,,0.01,Wunderground v.1.15,2013-09-20 15:30:00,
2013-09-20 11:35:00,73.0,61.4,30.05,SW,218,2.0,8.0,67,0.00,,,0.01,Wunderground v.1.15,2013-09-20 15:35:00,
2013-09-20 11:40:00,73.1,61.5,30.05,SSE,160,3.0,3.0,67,0.00,,,0.01,Wunderground v.1.15,2013-09-20 15:40:00,
2013-09-20 11:45:00,73.3,61.7,30.04,WSW,249,2.0,8.0,67,0.00,,,0.01,Wunderground v.1.15,2013-09-20 15:45:00,
2013-09-20 11:50:00,73.5,61.0,30.04,West,271,2.0,2.0,65,0.00,,,0.01,Wunderground v.1.15,2013-09-20 15:50:00,
2013-09-20 11:55:00,73.8,61.3,30.04,West,281,2.0,8.0,65,0.00,,,0.01,Wunderground v.1.15,2013-09-20 15:55:00,
2013-09-20 12:00:00,74.1,61.1,30.05,WNW,296,2.0,8.0,64,0.00,,,0.01,Wunderground v.1.15,2013-09-20 16:00:00,
2013-09-20 12:05:00,74.2,60.8,30.04,North,354,2.0,8.0,63,0.00,,,0.01,Wunderground v.1.15,2013-09-20 16:05:00,
2013-09-20 12:10:00,74.4,60.1,30.04,WNW,285,2.0,2.0,61,0.00,,,0.01,Wunderground v.1.15,2013-09-20 16:10:00,
2013-09-20 12:15:00,74.2,60.3,30.04,SSW,207,3.0,7.0,62,0.00,,,0.01,Wunderground v.1.15,2013-09-20 16:15:00,
2013-09-20 12:20:00,74.1,59.8,30.04,SW,224,4.0,8.0,61,0.00,,,0.01,Wunderground v.1.15,2013-09-20 16:20:00,
2013-09-20 12:30:00,74.2,59.9,30.03,WSW,243,4.0,8.0,61,0.00,,,0.01,Wunderground v.1.15,2013-09-20 16:30:00,
2013-09-20 12:35:00,74.5,60.2,30.03,WSW,257,4.0,8.0,61,0.00,,,0.01,Wunderground v.1.15,2013-09-20 16:35:00,
2013-09-20 12:40:00,74.8,61.8,30.02,WSW,250,3.0,8.0,64,0.00,,,0.01,Wunderground v.1.15,2013-09-20 16:40:00,
2013-09-20 12:45:00,74.8,60.4,30.02,SSW,207,3.0,8.0,61,0.00,,,0.01,Wunderground v.1.15,2013-09-20 16:45:00,
2013-09-20 12:50:00,74.5,60.6,30.02,SSE,156,5.0,5.0,62,0.00,,,0.01,Wunderground v.1.15,2013-09-20 16:50:00,
2013-09-20 12:55:00,74.9,60.5,30.02,SSW,209,4.0,8.0,61,0.00,,,0.01,Wunderground v.1.15,2013-09-20 16:55:00,
2013-09-20 13:00:00,75.1,60.7,30.02,SSW,205,3.0,8.0,61,0.00,,,0.01,Wunderground v.1.15,2013-09-20 17:00:00,
2013-09-20 13:05:00,75.1,60.3,30.01,WSW,243,3.0,8.0,60,0.00,,,0.01,Wunderground v.1.15,2013-09-20 17:05:00,
2013-09-20 13:10:00,75.2,60.4,30.00,SSW,208,4.0,8.0,60,0.00,,,0.01,Wunderground v.1.15,2013-09-20 17:10:00,
2013-09-20 13:15:00,75.2,60.8,30.00,WSW,237,5.0,8.0,61,0.00,,,0.01,Wunderground v.1.15,2013-09-20 17:15:00,
2013-09-20 13:20:00,75.2,60.8,30.00,SSW,203,4.0,8.0,61,0.00,,,0.01,Wunderground v.1.15,2013-09-20 17:20:00,
2013-09-20 13:25:00,75.5,61.6,30.00,SW,236,4.0,8.0,62,0.00,,,0.01,Wunderground v.1.15,2013-09-20 17:25:00,
2013-09-20 13:30:00,76.1,61.2,30.00,SSW,209,3.0,9.0,60,0.00,,,0.01,Wunderground v.1.15,2013-09-20 17:30:00,
2013-09-20 13:35:00,76.0,61.1,30.00,SE,142,3.0,9.0,60,0.00,,,0.01,Wunderground v.1.15,2013-09-20 17:35:00,
2013-09-20 13:40:00,76.3,61.9,30.00,SSE,162,3.0,3.0,61,0.00,,,0.01,Wunderground v.1.15,2013-09-20 17:40:00,
2013-09-20 13:45:00,76.1,61.2,30.00,SW,228,3.0,11.0,60,0.00,,,0.01,Wunderground v.1.15,2013-09-20 17:45:00,
2013-09-20 13:50:00,76.1,60.7,30.00,South,179,5.0,8.0,59,0.00,,,0.01,Wunderground v.1.15,2013-09-20 17:50:00,
2013-09-20 13:55:00,76.4,62.9,29.99,SSW,196,4.0,8.0,63,0.00,,,0.01,Wunderground v.1.15,2013-09-20 17:55:00,
2013-09-20 14:00:00,76.7,61.3,29.99,South,187,3.0,3.0,59,0.00,,,0.01,Wunderground v.1.15,2013-09-20 18:00:00,
2013-09-20 14:05:00,76.8,61.4,29.99,SSE,155,3.0,8.0,59,0.00,,,0.01,Wunderground v.1.15,2013-09-20 18:05:00,
2013-09-20 14:10:00,76.9,62.0,29.99,SSE,158,3.0,3.0,60,0.00,,,0.01,Wunderground v.1.15,2013-09-20 18:10:00,
2013-09-20 14:15:00,77.4,61.5,29.98,WSW,248,2.0,8.0,58,0.00,,,0.01,Wunderground v.1.15,2013-09-20 18:15:00,
2013-09-20 14:20:00,77.7,61.3,29.98,WNW,294,2.0,8.0,57,0.00,,,0.01,Wunderground v.1.15,2013-09-20 18:20:00,
2013-09-20 14:25:00,77.9,61.4,29.98,SSE,152,3.0,8.0,57,0.00,,,0.01,Wunderground v.1.15,2013-09-20 18:25:00,
2013-09-20 14:30:00,77.7,60.8,29.98,SW,233,3.0,9.0,56,0.00,,,0.01,Wunderground v.1.15,2013-09-20 18:30:00,
2013-09-20 14:35:00,77.4,60.5,29.98,NNW,342,4.0,9.0,56,0.00,,,0.01,Wunderground v.1.15,2013-09-20 18:35:00,
2013-09-20 14:40:00,77.4,60.5,29.98,SW,224,4.0,8.0,56,0.00,,,0.01,Wunderground v.1.15,2013-09-20 18:40:00,
2013-09-20 14:45:00,77.2,60.8,29.98,SE,131,4.0,8.0,57,0.00,,,0.01,Wunderground v.1.15,2013-09-20 18:45:00,
2013-09-20 14:50:00,77.4,61.0,29.97,South,173,4.0,4.0,57,0.00,,,0.01,Wunderground v.1.15,2013-09-20 18:50:00,
2013-09-20 14:55:00,77.5,61.6,29.97,ENE,72,4.0,8.0,58,0.00,,,0.01,Wunderground v.1.15,2013-09-20 18:55:00,
2013-09-20 15:00:00,77.9,60.9,29.98,SE,124,3.0,3.0,56,0.00,,,0.01,Wunderground v.1.15,2013-09-20 19:00:00,
2013-09-20 15:05:00,78.2,61.2,29.97,WNW,302,3.0,8.0,56,0.00,,,0.01,Wunderground v.1.15,2013-09-20 19:05:00,
2013-09-20 15:15:00,78.0,60.0,29.97,SSW,206,5.0,9.0,54,0.00,,,0.01,Wunderground v.1.15,2013-09-20 19:15:00,
2013-09-20 15:20:00,78.0,60.0,29.97,WSW,243,5.0,5.0,54,0.00,,,0.01,Wunderground v.1.15,2013-09-20 19:20:00,
2013-09-20 15:25:00,78.3,60.3,29.97,West,271,4.0,8.0,54,0.00,,,0.01,Wunderground v.1.15,2013-09-20 19:25:00,
2013-09-20 15:30:00,78.3,60.3,29.97,SSW,207,3.0,8.0,54,0.00,,,0.01,Wunderground v.1.15,2013-09-20 19:30:00,
2013-09-20 15:35:00,78.5,61.5,29.97,SW,236,3.0,8.0,56,0.00,,,0.01,Wunderground v.1.15,2013-09-20 19:35:00,
2013-09-20 15:40:00,78.8,61.3,29.97,South,188,3.0,8.0,55,0.00,,,0.01,Wunderground v.1.15,2013-09-20 19:40:00,
2013-09-20 15:45:00,78.8,60.7,29.96,SW,225,3.0,8.0,54,0.00,,,0.01,Wunderground v.1.15,2013-09-20 19:45:00,
2013-09-20 15:50:00,78.8,61.3,29.96,SW,221,3.0,3.0,55,0.00,,,0.01,Wunderground v.1.15,2013-09-20 19:50:00,
2013-09-20 15:55:00,78.9,60.3,29.95,WSW,250,3.0,6.0,53,0.00,,,0.01,Wunderground v.1.15,2013-09-20 19:55:00,
2013-09-20 16:00:00,78.6,60.6,29.95,SSW,200,4.0,4.0,54,0.00,,,0.01,Wunderground v.1.15,2013-09-20 20:00:00,
2013-09-20 16:05:00,79.0,61.5,29.95,SSE,166,3.0,8.0,55,0.00,,,0.01,Wunderground v.1.15,2013-09-20 20:05:00,
2013-09-20 16:10:00,79.2,60.1,29.95,SSW,201,2.0,8.0,52,0.00,,,0.01,Wunderground v.1.15,2013-09-20 20:10:00,
2013-09-20 16:15:00,79.1,60.5,29.95,SW,218,3.0,8.0,53,0.00,,,0.01,Wunderground v.1.15,2013-09-20 20:15:00,
2013-09-20 16:20:00,79.1,60.5,29.95,WSW,245,3.0,8.0,53,0.00,,,0.01,Wunderground v.1.15,2013-09-20 20:20:00,
2013-09-20 16:25:00,78.7,59.6,29.94,SSW,212,5.0,8.0,52,0.00,,,0.01,Wunderground v.1.15,2013-09-20 20:25:00,
2013-09-20 16:30:00,78.6,60.0,29.94,SW,215,5.0,5.0,53,0.00,,,0.01,Wunderground v.1.15,2013-09-20 20:30:00,
2013-09-20 16:35:00,78.5,61.0,29.93,South,188,3.0,8.0,55,0.00,,,0.01,Wunderground v.1.15,2013-09-20 20:35:00,
2013-09-20 16:40:00,78.3,60.8,29.93,ESE,114,2.0,8.0,55,0.00,,,0.01,Wunderground v.1.15,2013-09-20 20:40:00,
2013-09-20 16:45:00,78.0,60.5,29.93,ESE,104,3.0,8.0,55,0.00,,,0.01,Wunderground v.1.15,2013-09-20 20:45:00,
2013-09-20 16:50:00,77.7,60.8,29.93,SSE,148,3.0,3.0,56,0.00,,,0.01,Wunderground v.1.15,2013-09-20 20:50:00,
2013-09-20 16:55:00,77.5,60.6,29.93,SW,233,3.0,8.0,56,0.00,,,0.01,Wunderground v.1.15,2013-09-20 20:55:00,
2013-09-20 17:00:00,77.5,60.6,29.93,South,172,2.0,8.0,56,0.00,,,0.01,Wunderground v.1.15,2013-09-20 21:00:00,
2013-09-20 17:05:00,77.3,59.9,29.93,South,177,3.0,8.0,55,0.00,,,0.01,Wunderground v.1.15,2013-09-20 21:05:00,
2013-09-20 17:15:00,76.9,59.5,29.93,South,175,4.0,8.0,55,0.00,,,0.01,Wunderground v.1.15,2013-09-20 21:15:00,
2013-09-20 17:20:00,76.8,59.4,29.92,South,188,4.0,8.0,55,0.00,,,0.01,Wunderground v.1.15,2013-09-20 21:20:00,
2013-09-20 17:25:00,76.7,59.8,29.92,SW,226,4.0,8.0,56,0.00,,,0.01,Wunderground v.1.15,2013-09-20 21:25:00,
2013-09-20 17:30:00,76.7,59.8,29.92,WSW,238,3.0,8.0,56,0.00,,,0.01,Wunderground v.1.15,2013-09-20 21:30:00,
2013-09-20 17:35:00,76.6,59.7,29.92,WSW,238,3.0,8.0,56,0.00,,,0.01,Wunderground v.1.15,2013-09-20 21:35:00,
2013-09-20 17:40:00,76.5,60.1,29.92,WSW,242,3.0,8.0,57,0.00,,,0.01,Wunderground v.1.15,2013-09-20 21:40:00,
2013-09-20 17:45:00,76.4,59.5,29.92,South,191,3.0,8.0,56,0.00,,,0.01,Wunderground v.1.15,2013-09-20 21:45:00,
2013-09-20 17:50:00,76.4,60.0,29.92,SSW,198,3.0,3.0,57,0.00,,,0.01,Wunderground v.1.15,2013-09-20 21:50:00,
2013-09-20 17:55:00,76.1,59.3,29.93,WSW,254,3.0,8.0,56,0.00,,,0.01,Wunderground v.1.15,2013-09-20 21:55:00,
2013-09-20 18:00:00,75.9,59.6,29.93,SW,214,4.0,4.0,57,0.00,,,0.01,Wunderground v.1.15,2013-09-20 22:00:00,
2013-09-20 18:05:00,75.7,59.4,29.93,WSW,256,3.0,8.0,57,0.00,,,0.01,Wunderground v.1.15,2013-09-20 22:05:00,
2013-09-20 18:15:00,75.0,59.7,29.94,SSW,198,3.0,8.0,59,0.00,,,0.01,Wunderground v.1.15,2013-09-20 22:15:00,
2013-09-20 18:20:00,74.5,59.7,29.93,SSW,195,2.0,2.0,60,0.00,,,0.01,Wunderground v.1.15,2013-09-20 22:20:00,
2013-09-20 18:25:00,73.9,59.6,29.93,SE,146,1.0,8.0,61,0.00,,,0.01,Wunderground v.1.15,2013-09-20 22:25:00,
2013-09-20 18:30:00,73.2,59.4,29.93,SW,232,1.0,8.0,62,0.00,,,0.01,Wunderground v.1.15,2013-09-20 22:30:00,
2013-09-20 18:35:00,72.8,59.0,29.93,SW,224,2.0,8.0,62,0.00,,,0.01,Wunderground v.1.15,2013-09-20 22:35:00,
2013-09-20 18:40:00,72.4,59.1,29.93,SSW,210,1.0,8.0,63,0.00,,,0.01,Wunderground v.1.15,2013-09-20 22:40:00,
2013-09-20 18:45:00,72.0,59.6,29.93,West,259,1.0,8.0,65,0.00,,,0.01,Wunderground v.1.15,2013-09-20 22:45:00,
2013-09-20 18:50:00,71.3,59.4,29.93,West,264,1.0,1.0,66,0.00,,,0.01,Wunderground v.1.15,2013-09-20 22:50:00,
2013-09-20 18:55:00,70.7,59.2,29.93,West,264,0.0,8.0,67,0.00,,,0.01,Wunderground v.1.15,2013-09-20 22:55:00,
2013-09-20 19:00:00,70.2,59.1,29.93,WSW,245,0.0,8.0,68,0.00,,,0.01,Wunderground v.1.15,2013-09-20 23:00:00,
2013-09-20 19:05:00,69.7,59.1,29.93,NW,304,0.0,8.0,69,0.00,,,0.01,Wunderground v.1.15,2013-09-20 23:05:00,
2013-09-20 19:10:00,69.4,59.2,29.93,SSW,209,0.0,8.0,70,0.00,,,0.01,Wunderground v.1.15,2013-09-20 23:10:00,
2013-09-20 19:20:00,68.5,59.1,29.92,SSW,194,1.0,8.0,72,0.00,,,0.01,Wunderground v.1.15,2013-09-20 23:20:00,
2013-09-20 19:25:00,68.2,59.2,29.92,SSW,210,1.0,8.0,73,0.00,,,0.01,Wunderground v.1.15,2013-09-20 23:25:00,
2013-09-20 19:30:00,67.9,58.9,29.92,SW,233,1.0,8.0,73,0.00,,,0.01,Wunderground v.1.15,2013-09-20 23:30:00,
2013-09-20 19:35:00,67.7,58.7,29.93,West,266,1.0,8.0,73,0.00,,,0.01,Wunderground v.1.15,2013-09-20 23:35:00,
2013-09-20 19:40:00,67.5,58.9,29.93,SE,142,0.0,8.0,74,0.00,,,0.01,Wunderground v.1.15,2013-09-20 23:40:00,
2013-09-20 19:45:00,67.1,58.5,29.93,SW,222,0.0,8.0,74,0.00,,,0.01,Wunderground v.1.15,2013-09-20 23:45:00,
2013-09-20 19:50:00,66.7,58.5,29.93,SW,221,0.0,8.0,75,0.00,,,0.01,Wunderground v.1.15,2013-09-20 23:50:00,
2013-09-20 19:55:00,66.2,58.4,29.93,SW,222,0.0,8.0,76,0.00,,,0.01,Wunderground v.1.15,2013-09-20 23:55:00,
2013-09-20 20:00:00,65.8,58.4,29.93,SW,222,0.0,8.0,77,0.00,,,0.01,Wunderground v.1.15,2013-09-21 00:00:00,
2013-09-20 20:05:00,65.4,58.4,29.92,SSW,194,0.0,8.0,78,0.00,,,0.01,Wunderground v.1.15,2013-09-21 00:05:00,
2013-09-20 20:10:00,65.1,58.4,29.92,SSE,165,0.0,8.0,79,0.00,,,0.01,Wunderground v.1.15,2013-09-21 00:10:00,
2013-09-20 20:20:00,64.8,58.1,29.92,SW,235,0.0,8.0,79,0.00,,,0.01,Wunderground v.1.15,2013-09-21 00:20:00,
2013-09-20 20:25:00,64.8,58.1,29.92,WSW,245,0.0,8.0,79,0.00,,,0.01,Wunderground v.1.15,2013-09-21 00:25:00,
2013-09-20 20:30:00,64.7,58.0,29.92,SW,217,0.0,8.0,79,0.00,,,0.01,Wunderground v.1.15,2013-09-21 00:30:00,
2013-09-20 20:35:00,64.4,58.1,29.92,SW,217,0.0,8.0,80,0.00,,,0.01,Wunderground v.1.15,2013-09-21 00:35:00,
2013-09-20 20:40:00,64.1,57.8,29.92,SW,217,0.0,8.0,80,0.00,,,0.01,Wunderground v.1.15,2013-09-21 00:40:00,
2013-09-20 20:45:00,64.0,58.1,29.92,WSW,246,0.0,8.0,81,0.00,,,0.01,Wunderground v.1.15,2013-09-21 00:45:00,
2013-09-20 20:50:00,63.9,58.0,29.92,SW,233,0.0,8.0,81,0.00,,,0.01,Wunderground v.1.15,2013-09-21 00:50:00,
2013-09-20 20:55:00,63.8,57.9,29.92,SW,228,0.0,8.0,81,0.00,,,0.01,Wunderground v.1.15,2013-09-21 00:55:00,
2013-09-20 21:00:00,63.8,57.9,29.93,SW,214,0.0,8.0,81,0.00,,,0.01,Wunderground v.1.15,2013-09-21 01:00:00,
2013-09-20 21:05:00,63.9,58.0,29.93,SW,214,0.0,8.0,81,0.00,,,0.01,Wunderground v.1.15,2013-09-21 01:05:00,
2013-09-20 21:10:00,63.8,57.9,29.93,SW,233,0.0,8.0,81,0.00,,,0.01,Wunderground v.1.15,2013-09-21 01:10:00,
2013-09-20 21:15:00,63.8,57.9,29.93,SW,214,1.0,8.0,81,0.00,,,0.01,Wunderground v.1.15,2013-09-21 01:15:00,
2013-09-20 21:20:00,63.7,57.8,29.93,SW,214,1.0,8.0,81,0.00,,,0.01,Wunderground v.1.15,2013-09-21 01:20:00,
2013-09-20 21:25:00,63.7,57.8,29.93,South,171,1.0,8.0,81,0.00,,,0.01,Wunderground v.1.15,2013-09-21 01:25:00,
2013-09-20 21:30:00,63.7,57.8,29.93,SSW,210,1.0,1.0,81,0.00,,,0.01,Wunderground v.1.15,2013-09-21 01:30:00,
2013-09-20 21:35:00,63.7,57.8,29.93,South,186,1.0,8.0,81,0.00,,,0.01,Wunderground v.1.15,2013-09-21 01:35:00,
2013-09-20 21:40:00,63.6,57.7,29.93,SW,232,1.0,1.0,81,0.00,,,0.01,Wunderground v.1.15,2013-09-21 01:40:00,
2013-09-20 21:45:00,63.5,57.6,29.92,SSW,207,1.0,2.0,81,0.00,,,0.01,Wunderground v.1.15,2013-09-21 01:45:00,
2013-09-20 21:50:00,63.5,57.6,29.93,WSW,238,1.0,1.0,81,0.00,,,0.01,Wunderground v.1.15,2013-09-21 01:50:00,
2013-09-20 21:55:00,63.5,57.6,29.93,WSW,240,0.0,8.0,81,0.00,,,0.01,Wunderground v.1.15,2013-09-21 01:55:00,
2013-09-20 22:00:00,63.4,57.5,29.92,SE,136,0.0,8.0,81,0.00,,,0.01,Wunderground v.1.15,2013-09-21 02:00:00,
2013-09-20 22:05:00,63.2,57.3,29.93,WNW,289,0.0,8.0,81,0.00,,,0.01,Wunderground v.1.15,2013-09-21 02:05:00,
2013-09-20 22:10:00,63.2,57.3,29.93,WNW,288,0.0,8.0,81,0.00,,,0.01,Wunderground v.1.15,2013-09-21 02:10:00,
2013-09-20 22:15:00,63.2,57.3,29.93,WSW,245,0.0,8.0,81,0.00,,,0.01,Wunderground v.1.15,2013-09-21 02:15:00,
2013-09-20 22:20:00,63.3,57.4,29.93,WSW,246,0.0,8.0,81,0.00,,,0.01,Wunderground v.1.15,2013-09-21 02:20:00,
2013-09-20 22:25:00,63.6,57.7,29.93,WSW,242,1.0,8.0,81,0.00,,,0.01,Wunderground v.1.15,2013-09-21 02:25:00,
2013-09-20 22:30:00,63.8,57.5,29.93,NW,306,1.0,8.0,80,0.00,,,0.01,Wunderground v.1.15,2013-09-21 02:30:00,
2013-09-20 22:35:00,64.0,57.7,29.93,SSW,194,1.0,8.0,80,0.00,,,0.01,Wunderground v.1.15,2013-09-21 02:35:00,
2013-09-20 22:40:00,64.1,57.5,29.93,SW,225,1.0,1.0,79,0.00,,,0.01,Wunderground v.1.15,2013-09-21 02:40:00,
2013-09-20 22:45:00,64.1,57.5,29.93,SSE,166,1.0,2.0,79,0.00,,,0.01,Wunderground v.1.15,2013-09-21 02:45:00,
2013-09-20 22:50:00,64.1,57.5,29.93,WSW,248,1.0,8.0,79,0.00,,,0.01,Wunderground v.1.15,2013-09-21 02:50:00,
2013-09-20 22:55:00,64.2,57.5,29.93,SW,224,1.0,8.0,79,0.00,,,0.01,Wunderground v.1.15,2013-09-21 02:55:00,
2013-09-20 23:00:00,64.3,57.6,29.93,SE,135,1.0,1.0,79,0.00,,,0.01,Wunderground v.1.15,2013-09-21 03:00:00,
2013-09-20 23:05:00,64.2,57.5,29.93,SSW,204,1.0,5.0,79,0.00,,,0.01,Wunderground v.1.15,2013-09-21 03:05:00,
2013-09-20 23:10:00,64.1,57.5,29.93,SW,230,2.0,8.0,79,0.00,,,0.01,Wunderground v.1.15,2013-09-21 03:10:00,
2013-09-20 23:15:00,63.9,57.3,29.93,WSW,242,2.0,8.0,79,0.00,,,0.01,Wunderground v.1.15,2013-09-21 03:15:00,
2013-09-20 23:20:00,63.6,57.3,29.92,South,188,2.0,2.0,80,0.00,,,0.01,Wunderground v.1.15,2013-09-21 03:20:00,
2013-09-20 23:25:00,63.4,57.1,29.92,WSW,242,2.0,8.0,80,0.00,,,0.01,Wunderground v.1.15,2013-09-21 03:25:00,
2013-09-20 23:30:00,63.2,57.3,29.92,SSW,205,2.0,8.0,81,0.00,,,0.01,Wunderground v.1.15,2013-09-21 03:30:00,
2013-09-20 23:35:00,63.0,57.1,29.92,WSW,245,1.0,8.0,81,0.00,,,0.01,Wunderground v.1.15,2013-09-21 03:35:00,
2013-09-20 23:40:00,62.9,57.0,29.92,SSW,207,1.0,1.0,81,0.00,,,0.01,Wunderground v.1.15,2013-09-21 03:40:00,
2013-09-20 23:45:00,62.9,57.0,29.92,SW,236,2.0,2.0,81,0.00,,,0.01,Wunderground v.1.15,2013-09-21 03:45:00,
2013-09-20 23:50:00,63.1,57.2,29.91,SW,229,2.0,2.0,81,0.00,,,0.01,Wunderground v.1.15,2013-09-21 03:50:00,
2013-09-20 23:55:00,63.3,57.0,29.91,WSW,248,2.0,8.0,80,0.00,,,0.01,Wunderground v.1.15,2013-09-21 03:55:00,